W1JCN Weather Reports


Display with metric or nautical units.
time (UTC)temp
F
wind
direction
speed
MPH
gust
MPH
rain 1hr
in
rain 24hr
in
rain mn
in
humidity
%
barometer
mb
20260510133003 50 177 1.0 5.0 0.00 0.16 0.01 96 1009.6
20260510132101 50 176 1.0 4.0 0.00 0.16 0.01 96 1009.5
20260510131201 50 176 0.0 3.0 0.00 0.16 0.01 96 1009.3
20260510130301 50 197 0.0 2.0 0.00 0.16 0.01 96 1009.4
20260510125401 49 170 0.0 3.0 0.00 0.16 0.01 96 1009.5
20260510122701 48 163 0.0 5.0 0.00 0.16 0.01 96 1009.4
20260510121800 48 170 1.0 4.0 0.00 0.16 0.01 96 1009.4
20260510120901 48 176 1.0 4.0 0.00 0.16 0.01 96 1009.5
20260510120001 48 149 0.0 4.0 0.00 0.16 0.01 96 1009.4
20260510115100 48 171 0.0 4.0 0.00 0.16 0.01 96 1009.4
20260510114200 48 171 0.0 2.0 0.00 0.16 0.01 96 1009.2
20260510113300 48 165 0.0 3.0 0.00 0.16 0.01 96 1009.1
20260510111501 48 188 0.0 2.0 0.00 0.16 0.01 95 1009.3
20260510110600 48 194 0.0 2.0 0.00 0.16 0.01 95 1009.1
20260510105700 48 171 0.0 2.0 0.00 0.16 0.01 95 1009.0
20260510104800 48 163 0.0 2.0 0.00 0.16 0.01 95 1008.8
20260510103000 48 159 0.0 1.0 0.00 0.16 0.01 95 1008.5
20260510102100 48 133 0.0 2.0 0.00 0.16 0.01 95 1008.2
20260510101200 48 160 0.0 3.0 0.00 0.16 0.01 95 1007.8
20260510100300 47 183 0.0 2.0 0.00 0.16 0.01 96 1007.6
20260510094500 47 182 0.0 1.0 0.00 0.16 0.01 96 1007.8
20260510093600 47 181 0.0 1.0 0.00 0.16 0.01 96 1007.7
20260510092700 47 181 0.0 1.0 0.00 0.16 0.01 96 1007.3
20260510090900 47 181 0.0 2.0 0.00 0.16 0.01 96 1007.7
20260510090000 47 183 0.0 2.0 0.00 0.16 0.01 96 1007.3
20260510085100 47 0 0.0 0.0 0.00 0.16 0.01 96 1007.7
20260510084200 47 187 0.0 2.0 0.00 0.16 0.01 96 1007.8
20260510082400 47 188 0.0 1.0 0.00 0.16 0.01 96 1007.9
20260510080600 47 188 0.0 1.0 0.00 0.16 0.01 96 1008.0
20260510075700 48 188 0.0 5.0 0.00 0.16 0.01 95 1007.9
20260510074800 47 188 0.0 2.0 0.00 0.16 0.01 96 1008.0
20260510073900 47 188 0.0 2.0 0.00 0.16 0.01 96 1007.9
20260510073000 47 187 0.0 2.0 0.00 0.16 0.01 96 1008.0
20260510072100 47 189 0.0 1.0 0.00 0.16 0.01 96 1007.9
20260510071200 47 194 0.0 2.0 0.00 0.16 0.01 96 1007.8
20260510070300 47 206 0.0 1.0 0.00 0.16 0.01 95 1007.8
20260510065400 47 205 0.0 2.0 0.00 0.16 0.01 95 1007.9
20260510064500 47 203 0.0 1.0 0.00 0.16 0.01 96 1007.9
20260510063600 46 204 0.0 2.0 0.00 0.16 0.01 95 1008.1
20260510062700 46 205 0.0 2.0 0.01 0.16 0.01 95 1008.1
20260510061800 46 0 0.0 0.0 0.01 0.16 0.01 95 1007.9
20260510053300 45 0 0.0 0.0 0.01 0.16 0.01 95 1008.1
20260510052400 45 0 0.0 0.0 0.00 0.15 0.00 95 1008.0
20260510051500 45 0 0.0 0.0 0.00 0.15 0.00 95 1008.1
20260510050600 45 0 0.0 0.0 0.00 0.15 0.00 95 1008.1
20260510045700 45 0 0.0 0.0 0.00 0.15 0.00 95 1008.1
20260510044800 45 0 0.0 0.0 0.00 0.15 0.00 95 1008.4
20260510043900 45 0 0.0 0.0 0.00 0.15 0.00 95 1008.2
20260510043000 45 0 0.0 0.0 0.00 0.15 0.00 95 1008.3
20260510042100 45 0 0.0 0.0 0.00 0.15 0.00 95 1008.2
20260510040300 44 0 0.0 0.0 0.00 0.15 0.00 95 1008.4
20260510035400 44 0 0.0 0.0 0.00 0.15 0.15 95 1008.4
20260510034500 44 0 0.0 0.0 0.00 0.15 0.15 95 1008.3
20260510033559 44 0 0.0 0.0 0.00 0.15 0.15 95 1008.3
20260510032659 44 0 0.0 0.0 0.00 0.15 0.15 95 1008.4
20260510031800 44 0 0.0 0.0 0.00 0.15 0.15 95 1008.4
20260510030000 44 206 0.0 1.0 0.00 0.15 0.15 95 1008.4
20260510025059 44 0 0.0 0.0 0.00 0.15 0.15 95 1008.6
20260510024159 44 206 0.0 1.0 0.00 0.15 0.15 95 1008.7
20260510023259 44 0 0.0 0.0 0.00 0.15 0.15 95 1008.9
20260510022359 44 205 0.0 1.0 0.00 0.15 0.15 95 1008.9
20260510021459 44 205 0.0 2.0 0.00 0.15 0.15 95 1008.9
20260510020559 44 206 0.0 4.0 0.00 0.15 0.15 95 1008.7
20260510015659 44 210 0.0 2.0 0.00 0.15 0.15 95 1008.8
20260510014759 44 210 0.0 2.0 0.00 0.15 0.15 95 1008.9
20260510013859 44 208 0.0 3.0 0.00 0.15 0.15 95 1008.8
20260510012959 44 206 0.0 1.0 0.00 0.15 0.15 95 1008.7
20260510012059 44 208 0.0 3.0 0.00 0.15 0.15 95 1008.9
20260510010259 44 212 0.0 3.0 0.00 0.15 0.15 95 1008.8
20260510005359 44 212 0.0 3.0 0.00 0.15 0.15 95 1008.9
20260510004459 44 213 0.0 1.0 0.00 0.15 0.15 95 1008.8
20260510003559 44 0 0.0 0.0 0.00 0.15 0.15 95 1008.7
20260510002659 44 0 0.0 0.0 0.00 0.15 0.15 95 1008.6
20260510001759 44 213 0.0 2.0 0.00 0.15 0.15 94 1008.4
20260510000859 44 212 0.0 2.0 0.00 0.15 0.15 94 1008.4
20260509235959 44 211 0.0 2.0 0.00 0.15 0.15 94 1008.2
20260509235059 44 211 0.0 1.0 0.00 0.15 0.15 94 1008.1
20260509234159 44 0 0.0 0.0 0.00 0.15 0.15 94 1008.1
20260509233259 44 211 0.0 3.0 0.00 0.15 0.15 94 1008.0
20260509232400 44 210 0.0 2.0 0.00 0.15 0.15 95 1008.1
20260509231459 44 0 0.0 0.0 0.00 0.15 0.15 95 1008.0
20260509230559 45 211 0.0 1.0 0.00 0.15 0.15 95 1008.0
20260509225659 45 211 0.0 1.0 0.00 0.15 0.15 95 1008.0
20260509224759 44 211 0.0 1.0 0.00 0.15 0.15 95 1008.1
20260509223859 44 211 0.0 1.0 0.00 0.15 0.15 94 1008.1
20260509222959 44 211 0.0 2.0 0.01 0.15 0.15 94 1008.1
20260509222059 44 211 0.0 3.0 0.01 0.15 0.15 94 1008.0
20260509221159 44 210 0.0 1.0 0.01 0.15 0.15 94 1008.1
20260509220259 44 206 0.0 2.0 0.01 0.15 0.15 94 1008.2
20260509214459 44 0 0.0 0.0 0.01 0.15 0.15 94 1008.3
20260509213559 44 206 0.0 1.0 0.00 0.14 0.14 94 1008.4
20260509212659 44 206 0.0 3.0 0.01 0.14 0.14 94 1008.5
20260509211759 44 207 0.0 1.0 0.01 0.14 0.14 94 1008.5
20260509210859 45 207 0.0 3.0 0.01 0.14 0.14 94 1008.6
20260509205059 45 207 0.0 5.0 0.02 0.14 0.14 94 1008.6
20260509204159 45 207 1.0 5.0 0.02 0.14 0.14 94 1008.5
20260509203259 45 208 0.0 1.0 0.03 0.14 0.14 94 1008.6
20260509201458 45 208 0.0 2.0 0.03 0.13 0.13 94 1008.6
20260509195659 45 208 0.0 2.0 0.04 0.12 0.12 94 1008.9
20260509194759 45 208 0.0 2.0 0.04 0.12 0.12 94 1009.0
20260509193859 45 207 0.0 4.0 0.05 0.12 0.12 94 1009.0
20260509192959 44 206 0.0 2.0 0.04 0.11 0.11 94 1009.0
20260509192059 44 207 0.0 2.0 0.04 0.10 0.10 94 1009.1
20260509191158 44 205 0.0 4.0 0.04 0.10 0.10 94 1009.3
20260509190258 44 189 0.0 5.0 0.03 0.09 0.09 93 1009.3
20260509185359 44 146 0.0 2.0 0.03 0.08 0.08 94 1009.4
20260509183558 45 206 0.0 2.0 0.02 0.07 0.07 94 1009.5
20260509182658 45 205 1.0 5.0 0.03 0.07 0.07 94 1009.6
20260509181758 45 201 1.0 4.0 0.02 0.06 0.06 94 1009.5
20260509180858 45 200 0.0 3.0 0.03 0.06 0.06 94 1009.5
20260509175958 45 198 0.0 1.0 0.03 0.06 0.06 94 1009.5
20260509175058 45 198 0.0 4.0 0.03 0.05 0.05 94 1009.5
20260509174158 45 198 0.0 5.0 0.03 0.05 0.05 94 1009.7
20260509173258 45 197 0.0 5.0 0.02 0.04 0.04 94 1009.8
20260509172358 45 199 1.0 6.0 0.02 0.04 0.04 94 1009.9
20260509171458 45 199 0.0 3.0 0.01 0.03 0.04 94 1009.8
20260509164758 45 203 0.0 1.0 0.01 0.02 0.02 94 1010.1
20260509163858 44 201 0.0 4.0 0.01 0.02 0.02 94 1010.2
20260509162958 44 196 0.0 2.0 0.01 0.02 0.02 94 1010.3
20260509162058 44 199 0.0 3.0 0.02 0.02 0.02 93 1010.3
20260509161158 44 206 0.0 2.0 0.02 0.02 0.02 93 1010.5
20260509160258 44 0 0.0 0.0 0.02 0.02 0.02 93 1010.6
20260509154458 44 209 0.0 2.0 0.01 0.01 0.01 92 1010.7
20260509153558 44 210 0.0 4.0 0.01 0.01 0.01 92 1010.8
20260509152658 44 210 0.0 4.0 0.00 0.00 0.00 92 1010.9
20260509151758 45 210 0.0 4.0 0.00 0.00 0.00 92 1011.0
20260509145958 45 0 0.0 0.0 0.00 0.00 0.00 92 1010.9
20260509145058 45 0 0.0 0.0 0.00 0.00 0.00 91 1010.8
20260509144158 45 210 0.0 3.0 0.00 0.00 0.00 90 1010.8
20260509143258 45 210 0.0 3.0 0.00 0.00 0.00 90 1010.8
20260509142358 45 210 0.0 4.0 0.00 0.00 0.00 89 1010.9
20260509141458 45 210 0.0 4.0 0.00 0.00 0.00 89 1010.9